Regional Weather Roundup
Issued by NWS Sioux Falls, SD

Home | Current Version | Previous Version | Graphics & Text | Print | Product List | Glossary Off
Versions: 1 2 3 4 5 6 7 8 9 10 11 12 13 14 15 16 17 18 19 20 21 22 23 24 25 26 27 28 29 30 31 32 33 34 35 36 37 38 39 40 41 42 43 44 45 46 47 48 49 50

000
ASUS43 KFSD 290210
RWRFSD

WEATHER ROUNDUP FOR SE SOUTH DAKOTA/SW MINNESOTA/NW IOWA
NATIONAL WEATHER SERVICE SIOUX FALLS SD
900 PM CDT THU AUG 28 2014

NOTE: "FAIR" INDICATES FEW OR NO CLOUDS BELOW 12,000 FEET WITH NO
SIGNIFICANT WEATHER AND OR OBSTRUCTIONS TO VISIBILITY.


SDZ038>040-050-052>070-290300-
SOUTHEAST SOUTH DAKOTA

CITY           SKY/WX    TMP DP  RH WIND       PRES   REMARKS
CHAMBERLAIN    MOCLDY    70  68  92 CALM      29.83S
HURON          CLOUDY    69  68  96 NE3       29.81F
MADISON        CLOUDY    68  68 100 SE8       29.86S
MITCHELL       MOCLDY    71  70  96 SE3       29.82R
SIOUX FALLS    CLOUDY    71  69  93 E7        29.83S FOG
WINNER         FAIR      69  67  93 W6        29.88R
YANKTON        MOCLDY    75  72  88 CALM      29.80R
$$

MNZ071-072-080-081-089-090-097-098-290300-
SOUTHWEST MINNESOTA

CITY           SKY/WX    TMP DP  RH WIND       PRES   REMARKS
FAIRMONT       CLOUDY    64  63  94 E6        29.88S
JACKSON        CLOUDY    66  63  88 E7        29.88F FOG
LUVERNE        CLOUDY    70  68  94 E5        29.85S
MARSHALL       CLOUDY    68  64  88 E12       29.86S
MONTEVIDEO     CLOUDY    66  66 100 SE9       29.88S FOG
PIPESTONE      CLOUDY    68  66  94 SE7       29.87R FOG
REDWOOD FALLS  CLOUDY    67  66  97 SE9       29.88S
TRACY          CLOUDY    69  67  95 CALM      29.87F
WINDOM         LGT RAIN  66  64  94 E7        29.88S
WORTHINGTON    CLOUDY    68  66  94 E9        29.88R
$$

IAZ001>003-012>014-020>022-031-032-NEZ013-014-SDZ071-290300-
NORTHWEST IOWA

CITY           SKY/WX    TMP DP  RH WIND       PRES   REMARKS
DENISON        CLOUDY    75  73  94 SE9G16    29.85R
ESTHERVILLE    CLOUDY    67  67 100 E6        29.88S FOG
LE MARS        MOCLDY    73  72  94 SE6G12    29.82S
ORANGE CITY    MOCLDY    73  70  88 CALM      29.84R
SHELDON        CLOUDY    70  70 100 E6        29.83F
SIOUX CITY     MOCLDY    75  72  90 SE6       29.81S
SPENCER        CLOUDY    72  70  93 SE8       29.86S
STORM LAKE     CLOUDY    72  72 100 SE6       29.87R
$$

ABBREVIATIONS USED IN REMARKS
   TC - TEMPERATURE IN CELSIUS
  WCI - WIND CHILL INDEX
   HX - HEAT INDEX
  VSB - VISIBILITY



USA.gov is the U.S. government's official web portal to all federal, state and local government web resources and services.